Regional Weather Roundup
Issued by NWS

Home | Current Version | Previous Version | Graphics & Text | Print | Product List | Glossary On
Versions: 1 2 3 4 5 6 7 8 9 10 11 12 13 14 15 16 17 18 19 20 21 22 23 24 25 26 27 28 29 30 31 32 33 34 35 36 37 38 39 40 41 42 43 44 45 46 47 48 49 50
000
ASUS43 KLOT 080512
RWRIL

ILLINOIS REGIONAL WEATHER ROUNDUP
NATIONAL WEATHER SERVICE CHICAGO/ROMEOVILLE IL
1100 PM CST WED DEC 07 2016

NOTE: "FAIR" INDICATES FEW OR NO CLOUDS BELOW 12,000 FEET WITH NO
SIGNIFICANT WEATHER AND/OR OBSTRUCTIONS TO VISIBILITY.

* THESE STATIONS ARE NOT UNDER NWS QUALITY CONTROL. THEY ALSO MAY NOT
  REPORT WEATHER SUCH AS PRECIPITATION OR FOG.

ILZ001-002-007-009-015-016-024-080600-
NORTHWEST ILLINOIS

CITY           SKY/WX    TMP DP  RH WIND       PRES   REMARKS
MOLINE         CLEAR     22  12  65 W21G29    30.26R WCI   6
STERLING*      FLURRIES  23  16  74 W22G32    30.20S WCI   8
SAVANNA*       CLOUDY    24  14  66 W17G23    30.21R WCI  10
$$

ILZ003-004-008-010-011-017-018-080600-
NORTH CENTRAL ILLINOIS

CITY           SKY/WX    TMP DP  RH WIND       PRES   REMARKS
ROCKFORD       FLURRIES  24  14  65 W16       30.17S WCI  11
FREEPORT*      FLURRIES  23  15  71 W18       30.17R WCI   8
ROCHELLE*      CLOUDY    23  15  71 W22G29    30.19R WCI   8
DE KALB*       FLURRIES  23  15  72 W20G33    30.16R WCI   8
$$

ILZ005-006-012>014-019>023-080600-
NORTHEAST ILLINOIS

CITY           SKY/WX    TMP DP  RH WIND       PRES   REMARKS
CHICAGO-OHARE  FLURRIES  24  15  68 W17G29    30.14S WCI  11
CHICAGO-MIDWAY FLURRIES  25  13  60 W17G30    30.16S WCI  12
AURORA         CLOUDY    24  16  71 W18G29    30.17R WCI  10
LANSING*       CLOUDY    24  17  74 W18G25    30.18R WCI  10
JOLIET*        CLOUDY    26  17  71 W14G20    30.19S WCI  14
WAUKEGAN       CLOUDY    23  13  65 W13G21    30.10S WCI  11
DUPAGE AIRPORT CLOUDY    23  14  68 W25G31    30.15R WCI   7
KANKAKEE*      CLOUDY    25  17  73 W20       30.21R WCI  11
WHEELING       CLOUDY    23  14  68 W14G25    30.15S WCI  11
MORRIS*        CLOUDY    24  16  71 W17G29    30.19R WCI  11
ROMEOVILLE*    CLOUDY    24  19  82 W17G24    30.18R WCI  10
NORTHERLY ISL    N/A     25  15  66 W15         N/A  WCI  13
$$

LMZ740>746-080600-
SOUTHERN LAKE MICHIGAN

STATION/POSITION SKY/WX   TEMP    WIND        PRES    VSBY  WAVE
                          AIR SEA DIR/SP/G                  HT/PER
                          (F)     (DEG/KT/KT) (MB)    (MI)  (FT/S)
HARRISON CRIB              25     280/ 26/ 32   N/A
BURNHAM HARBOR             25     280/ 16/ 19   N/A
CALUMET HARBOR             24     250/ 13/ 18 1020.6S
BURNS HARBOR               26     270/ 22     1021.0
MICHIGAN CITY              25     240/ 25/ 31   N/A
$$

ILZ025>027-034>036-040-047-049-050-058-095>099-080600-
WEST-CENTRAL ILLINOIS

CITY           SKY/WX    TMP DP  RH WIND       PRES   REMARKS
QUINCY         CLEAR     22  12  65 W12       30.35R WCI  10
GALESBURG*     CLEAR     20  14  76 W16       30.28R WCI   6
MACOMB*        CLEAR     22  14  70 W15G23    30.33S WCI   9
JACKSONVILLE*  PTCLDY    24  15  68 W17       30.33R WCI  10
PITTSFIELD*    CLEAR     24  13  62 W10G16    30.36R WCI  14
$$

ILZ028>032-037-038-041>044-048-051>054-059>061-080600-
CENTRAL ILLINOIS

CITY           SKY/WX    TMP DP  RH WIND       PRES   REMARKS
PONTIAC        CLOUDY    26  17  71 W17G25    30.24R WCI  13
BLOOMINGTON    MOCLDY    23  14  68 W22G28    30.24R WCI   8
DECATUR        MOCLDY    26  17  68 NW14      30.28R WCI  14
PEORIA         MOCLDY    23  13  65 W14G20    30.29R WCI  11
LACON*         CLOUDY    24  14  65 W13G21    30.25R WCI  13
LINCOLN*       PTCLDY    25  14  63 W9G22     30.30R WCI  16
SPRINGFIELD    PTCLDY    27  12  53 NW20G25   30.31R WCI  13
TAYLORVILLE    MOCLDY    27  17  65 NW18      30.31R WCI  14
$$

ILZ033-039-045-046-055>057-062-063-080600-
EAST-CENTRAL ILLINOIS

CITY           SKY/WX    TMP DP  RH WIND       PRES   REMARKS
CHAMPAIGN      PTCLDY    26  16  65 W18       30.25R WCI  13
RANTOUL*       PTCLDY    27  19  72 W16G24    30.24R WCI  15
MATTOON        PTCLDY    26  18  71 W13       30.27R WCI  15
PARIS*         CLEAR     27  20  75 W14       30.26R WCI  16
$$

ILZ079-100>102-080600-
SOUTHWEST ILLINOIS

CITY           SKY/WX    TMP DP  RH WIND       PRES   REMARKS
ALTON          CLEAR     29  19  65 W12       30.34R WCI  19
BELLEVILLE     CLEAR     29  18  62 NW15      30.33R WCI  18
CAHOKIA*       CLEAR     31  16  54 NW16G22   30.36R WCI  20
SPARTA*        CLOUDY    32  21  63 NW14      30.34R WCI  22
$$

ILZ064>066-069>071-074>076-080>082-084>086-088>090-092>094-080600-
SOUTH-CENTRAL ILLINOIS

CITY           SKY/WX    TMP DP  RH WIND       PRES   REMARKS
CARBONDALE     CLOUDY    35  22  58 NW10      30.32R WCI  27
CAIRO*         CLOUDY    36  24  60 NW7       30.32R WCI  31
EFFINGHAM*     PTCLDY    30  22  72 W12       30.31R WCI  20
MARION           N/A     36  23  60 NW6       30.32R WCI  31
CENTRALIA*     CLOUDY    33  23  68 NW9       30.31R WCI  25
SALEM*         CLOUDY    33  20  60 NW12      30.31R WCI  24
METROPOLIS*    CLOUDY    37  23  58 NW8       30.32R WCI  30
$$

ILZ067-068-072-073-078-083-087-091-080600-
SOUTHEAST ILLINOIS

CITY           SKY/WX    TMP DP  RH WIND       PRES   REMARKS
LAWRENCEVILLE  CLOUDY    33  22  63 NW13      30.28R WCI  24
FLORA*         CLOUDY    33  23  67 NW9       30.30R WCI  25
FAIRFIELD*     CLOUDY    33  22  64 CALM      30.29R
HARRISBURG*    CLOUDY    35  24  64 NW6       30.31R WCI  30
ROBINSON*      CLOUDY    31  23  71 NW10      30.28R WCI  22
CARMI*         CLOUDY    34  25  70 NW8       30.29R WCI  27
$$

ABBREVIATIONS USED IN REMARKS
   TC - TEMPERATURE IN CELSIUS
  WCI - WIND CHILL INDEX
   HX - HEAT INDEX
  VSB - VISIBILITY
$$





USA.gov is the U.S. government's official web portal to all federal, state and local government web resources and services.